Weather History for Stephenville, TX

Change the Weather History Date:

Saturday, March 10, 2012

  Actual Average Record
Temperature  
Mean Temperature 44 °F -  
Max Temperature 46 °F 68 °F 95 °F (1954)
Min Temperature 42 °F 43 °F 18 °F (1948)
Degree Days  
Heating Degree Days 21    
Moisture  
Dew Point 39 °F    
Average Humidity 82    
Maximum Humidity 93    
Minimum Humidity 62    
Precipitation  
Precipitation 1.46 in - - ()
Sea Level Pressure  
Sea Level Pressure 30.25 in    
Wind  
Wind Speed 6 mph (NE)    
Max Wind Speed 13 mph    
Max Gust Speed 9 mph    
Visibility 6 miles    
Events      
Averages and records for this station are not official NWS values.
T = Trace of Precipitation, MM = Missing Value Source: NWS Daily Summary

Daily Weather History Graph

Daily Weather History Graph

Search for Another Location

Airport:

Trip Planner

Search our weather history database for the weather conditions in past years. The results will help you decide how hot, cold, wet, or windy it might be!

Date:

Astronomy

Mar. 10, 2012 Rise Set
Actual Time 6:48 AM CST 6:37 PM CST
Civil Twilight 6:24 AM CST 7:01 PM CST
Nautical Twilight 5:55 AM CST 7:30 PM CST
Astronomical Twilight 5:27 AM CST 7:58 PM CST
Moon 9:35 PM CST (3/10) 7:57 AM CST (3/10)
Length of Visible Light 12h 37m
Length of Day
11h 48m
Waning Gibbous, 92% of the Moon is Illuminated
Mar 10
Waning Gibbous
Mar 14
Last Quarter
Mar 22
New
Mar 30
First Quarter
Apr 6
Full

Hourly Weather History & Observations

Time (CST) Temp. Windchill Dew Point Humidity Pressure Visibility Wind Dir Wind Speed Gust Speed Precip Events Conditions
12:15 AM 44.6 °F 42.2 °F 35.6 °F 71% 30.36 in 10.0 mi NNW 4.6 mph - N/A   Mostly Cloudy
12:35 AM 44.6 °F 42.2 °F 35.6 °F 71% 30.35 in 10.0 mi North 4.6 mph - N/A   Overcast
12:55 AM 44.6 °F 42.2 °F 33.8 °F 66% 30.34 in 10.0 mi NNE 4.6 mph - N/A   Overcast
1:15 AM 44.6 °F 42.2 °F 33.8 °F 66% 30.33 in 10.0 mi NNE 4.6 mph - N/A   Overcast
1:35 AM 44.6 °F 42.2 °F 33.8 °F 66% 30.33 in 10.0 mi NNE 4.6 mph - N/A   Overcast
1:55 AM 44.6 °F 43.1 °F 33.8 °F 66% 30.32 in 10.0 mi NNE 3.5 mph - N/A   Overcast
2:15 AM 44.6 °F 42.2 °F 33.8 °F 66% 30.32 in 10.0 mi North 4.6 mph - N/A   Overcast
2:35 AM 44.6 °F 43.1 °F 33.8 °F 66% 30.31 in 10.0 mi NNE 3.5 mph - N/A   Overcast
2:55 AM 44.6 °F 42.2 °F 33.8 °F 66% 30.32 in 10.0 mi NNE 4.6 mph - N/A   Overcast
3:15 AM 46.4 °F 42.4 °F 33.8 °F 62% 30.30 in 10.0 mi NE 8.1 mph - N/A   Overcast
3:35 AM 46.4 °F 41.9 °F 33.8 °F 62% 30.30 in 10.0 mi ENE 9.2 mph - N/A   Overcast
3:55 AM 46.4 °F 42.4 °F 33.8 °F 62% 30.29 in 10.0 mi East 8.1 mph - N/A   Overcast
4:15 AM 46.4 °F 43.5 °F 33.8 °F 62% 30.29 in 10.0 mi ENE 5.8 mph - N/A   Overcast
4:35 AM 46.4 °F 43.5 °F 33.8 °F 62% 30.29 in 10.0 mi ENE 5.8 mph - N/A   Overcast
4:55 AM 46.4 °F 41.9 °F 35.6 °F 66% 30.29 in 10.0 mi East 9.2 mph - N/A   Overcast
5:15 AM 46.4 °F 42.9 °F 33.8 °F 62% 30.29 in 10.0 mi East 6.9 mph - N/A   Overcast
5:35 AM 46.4 °F 41.9 °F 35.6 °F 66% 30.30 in 10.0 mi East 9.2 mph - N/A   Overcast
5:55 AM 46.4 °F 43.5 °F 35.6 °F 66% 30.30 in 10.0 mi East 5.8 mph - N/A   Overcast
6:15 AM 46.4 °F 40.7 °F 35.6 °F 66% 30.30 in 10.0 mi East 12.7 mph - N/A   Overcast
6:35 AM 44.6 °F 40.2 °F 37.4 °F 76% 30.30 in 7.0 mi ENE 8.1 mph - N/A   Overcast
6:55 AM 44.6 °F 39.7 °F 37.4 °F 76% 30.30 in 3.0 mi East 9.2 mph - N/A   Overcast
7:15 AM 44.6 °F 40.7 °F 37.4 °F 76% 30.29 in 7.0 mi East 6.9 mph - N/A   Overcast
7:35 AM 42.8 °F 36.2 °F 39.2 °F 87% 30.29 in 4.0 mi ENE 12.7 mph - N/A   Overcast
7:55 AM 42.8 °F 37.0 °F 39.2 °F 87% 30.29 in 3.0 mi East 10.4 mph - N/A   Overcast
8:15 AM 42.8 °F 40.1 °F 39.2 °F 87% 30.30 in 3.0 mi East 4.6 mph - N/A   Overcast
8:35 AM 42.8 °F 38.0 °F 41.0 °F 93% 30.30 in 3.0 mi East 8.1 mph - 0.02 in   Overcast
8:55 AM 42.8 °F 37.5 °F 41.0 °F 93% 30.29 in 3.0 mi ENE 9.2 mph - 0.05 in   Overcast
9:15 AM 42.8 °F 37.0 °F 41.0 °F 93% 30.29 in 3.0 mi ENE 10.4 mph - 0.04 in   Overcast
9:35 AM 42.8 °F 38.0 °F 41.0 °F 93% 30.29 in 5.0 mi East 8.1 mph - 0.05 in   Overcast
9:55 AM 42.8 °F 40.1 °F 41.0 °F 93% 30.29 in 4.0 mi East 4.6 mph - 0.08 in   Overcast
10:15 AM 42.8 °F 38.0 °F 41.0 °F 93% 30.27 in 7.0 mi ENE 8.1 mph - N/A   Overcast
10:35 AM 42.8 °F 37.5 °F 41.0 °F 93% 30.25 in 5.0 mi ENE 9.2 mph - N/A   Overcast
10:55 AM 42.8 °F 38.6 °F 41.0 °F 93% 30.31 in 3.0 mi WSW 6.9 mph - N/A   Overcast
11:15 AM 42.8 °F 40.1 °F 41.0 °F 93% 30.29 in 5.0 mi SSW 4.6 mph 9.2 mph 0.06 in   Mostly Cloudy
11:35 AM 42.8 °F 38.6 °F 41.0 °F 93% 30.26 in 4.0 mi East 6.9 mph - 0.08 in   Mostly Cloudy
11:55 AM 42.8 °F 38.0 °F 41.0 °F 93% 30.25 in 2.5 mi East 8.1 mph - N/A   Overcast
12:15 PM 42.8 °F 40.1 °F 41.0 °F 93% 30.25 in 0.5 mi East 4.6 mph - 0.35 in   Overcast
12:35 PM 42.8 °F 39.3 °F 41.0 °F 93% 30.24 in 1.2 mi East 5.8 mph - 0.49 in   Overcast
12:55 PM 44.6 °F 42.2 °F 41.0 °F 87% 30.22 in 2.5 mi ENE 4.6 mph - 0.53 in   Overcast
1:15 PM 44.6 °F - 41.0 °F 87% 30.24 in 0.8 mi Calm Calm - 0.10 in   Overcast
1:35 PM 44.6 °F 41.4 °F 41.0 °F 87% 30.20 in 1.8 mi NE 5.8 mph - 0.17 in   Mostly Cloudy
1:55 PM 44.6 °F 43.1 °F 41.0 °F 87% 30.21 in 1.5 mi NNW 3.5 mph - N/A   Mostly Cloudy
2:15 PM 44.6 °F 40.7 °F 42.8 °F 93% 30.18 in 4.0 mi North 6.9 mph - N/A   Mostly Cloudy
2:35 PM 44.6 °F 42.2 °F 42.8 °F 93% 30.17 in 1.5 mi NNE 4.6 mph - 0.09 in   Mostly Cloudy
2:55 PM 44.6 °F 39.2 °F 41.0 °F 87% 30.14 in 5.0 mi NE 10.4 mph - 0.15 in   Mostly Cloudy
3:15 PM 44.6 °F 39.2 °F 42.8 °F 93% 30.13 in 5.0 mi NE 10.4 mph - 0.01 in   Overcast
3:35 PM 44.6 °F 40.7 °F 42.8 °F 93% 30.12 in 4.0 mi NE 6.9 mph - 0.08 in   Overcast
3:55 PM 44.6 °F 42.2 °F 42.8 °F 93% 30.14 in 5.0 mi NE 4.6 mph - 0.09 in   Overcast
4:15 PM 44.6 °F 42.2 °F 42.8 °F 93% 30.15 in 1.8 mi NNE 4.6 mph - 0.09 in   Mostly Cloudy
4:35 PM 44.6 °F 40.7 °F 42.8 °F 93% 30.16 in 3.0 mi WNW 6.9 mph - 0.13 in   Overcast
4:55 PM 44.6 °F 39.7 °F 42.8 °F 93% 30.13 in 2.5 mi North 9.2 mph - 0.19 in   Overcast
5:15 PM 44.6 °F 39.7 °F 42.8 °F 93% 30.12 in 1.8 mi North 9.2 mph - 0.05 in   Overcast
5:35 PM 44.6 °F - 42.8 °F 93% 30.15 in 3.0 mi Calm Calm - 0.10 in   Overcast
5:55 PM 44.6 °F 42.2 °F 42.8 °F 93% 30.14 in 4.0 mi North 4.6 mph - 0.11 in   Mostly Cloudy
6:15 PM 44.6 °F 42.2 °F 42.8 °F 93% 30.13 in 3.0 mi NNE 4.6 mph - 0.01 in   Overcast
6:35 PM 44.6 °F 39.7 °F 42.8 °F 93% 30.12 in 7.0 mi ENE 9.2 mph - 0.02 in   Overcast
6:55 PM 44.6 °F 39.2 °F 42.8 °F 93% 30.12 in 7.0 mi NE 10.4 mph - 0.02 in   Overcast
7:15 PM 44.6 °F 39.7 °F 42.8 °F 93% 30.11 in 7.0 mi ENE 9.2 mph - N/A   Overcast
7:35 PM 44.6 °F 40.7 °F 42.8 °F 93% 30.12 in 7.0 mi ENE 6.9 mph - N/A   Overcast
7:55 PM 44.6 °F 39.7 °F 42.8 °F 93% 30.10 in 10.0 mi ENE 9.2 mph - 0.01 in   Overcast
8:15 PM 44.6 °F 39.7 °F 42.8 °F 93% 30.10 in 5.0 mi ENE 9.2 mph - N/A   Overcast
8:35 PM 44.6 °F 40.7 °F 42.8 °F 93% 30.11 in 7.0 mi East 6.9 mph - N/A   Overcast
8:55 PM 44.6 °F 40.7 °F 42.8 °F 93% 30.10 in 4.0 mi East 6.9 mph - 0.01 in   Overcast
9:15 PM 44.6 °F - 42.8 °F 93% 30.12 in 4.0 mi Calm Calm - N/A   Overcast
9:35 PM 44.6 °F - 42.8 °F 93% 30.12 in 2.5 mi Calm Calm - N/A   Overcast
9:55 PM 44.6 °F - 42.8 °F 93% 30.12 in 1.8 mi Calm Calm - 0.01 in   Overcast
10:15 PM 44.6 °F - 42.8 °F 93% 30.13 in 1.2 mi Calm Calm - N/A   Overcast
10:35 PM 44.6 °F - 42.8 °F 93% 30.12 in 1.5 mi Calm Calm - 0.02 in   Overcast
10:55 PM 44.6 °F 43.1 °F 42.8 °F 93% 30.13 in 2.0 mi WNW 3.5 mph - 0.02 in   Overcast
11:15 PM 44.6 °F 42.2 °F 42.8 °F 93% 30.12 in 2.5 mi NW 4.6 mph - 0.01 in   Overcast
11:35 PM 44.6 °F 43.1 °F 42.8 °F 93% 30.10 in 3.0 mi North 3.5 mph - 0.01 in   Overcast
11:55 PM 44.6 °F 42.2 °F 42.8 °F 93% 30.08 in 3.0 mi ENE 4.6 mph - 0.01 in   Overcast